Zurück zum Katalog

SATELIOT_3

AktivKommunikationSSO
NORAD 60552·PAYLOAD·🇪🇸 Spain

Gestartet Aug 16, 2024 von Vandenberg Space Force Base

Loading…

Nächste Überflüge (nächste 24 Stunden)

TLE

AktuellSource: Space-Track

Epoche: Sep 14, 2026, 11:57 UTC

1 60552U 24149CN  26257.49799427  .00002236  00000-0  19249-3 0  9992
2 60552  97.6765 332.7696 0006593 129.8799 230.3004 14.98354623113455

Verfolge SATELIOT_3 in Echtzeit mit AllMySat

Download on the App Store